Tracking 35331 objects as of 16-Sep-2026
HD Live streaming from Space Station
objects crossing your sky now

ELECTRON R/B


ELECTRON R/B is no longer on orbit


NORAD ID: 59882
Int'l Code: 2024-099B
Launch date: May 25, 2024
Source: United States (US)
Launch site: Rocket Lab Launch Complex (RLLC)
Decay date: 2024-06-10

Note: This is a ROCKET BODY
Your satellite tracking list
Your tracking list is empty




NASA's NSSDC Master Catalog

Two Line Element Set (TLE):
1 59882U 24099B   24162.35253499  .26591496  21862-5  37978-3 0  9994
2 59882  97.4512  21.7750 0027981 183.1273 235.1261 16.46282928  2545
Source of the keplerian elements: AFSPC